| time (UTC) | temp F | wind direction | speed MPH | gust MPH | rain 1hr in | rain 24hr in | rain mn in | humidity % | barometer mb |
| 20260506015427 | 72 | 293 | 1.0 | 3.0 | 0.00 | 0.00 | 0.00 | 68 | 1009.6 |
| 20260506014430 | 72 | 322 | 1.0 | 3.0 | 0.00 | 0.00 | 0.00 | 67 | 1009.8 |
| 20260506013430 | 72 | 270 | 0.0 | 1.0 | 0.00 | 0.00 | 0.00 | 67 | 1009.7 |
| 20260506012430 | 73 | 9 | 2.0 | 4.0 | 0.00 | 0.00 | 0.00 | 67 | 1009.3 |
| 20260506012327 | 73 | 309 | 2.0 | 4.0 | 0.00 | 0.00 | 0.00 | 67 | 1009.2 |
| 20260506011328 | 73 | 300 | 0.0 | 1.0 | 0.00 | 0.00 | 0.00 | 65 | 1009.2 |
| 20260506010427 | 73 | 352 | 3.0 | 5.0 | 0.00 | 0.00 | 0.00 | 65 | 1008.9 |
| 20260506005429 | 73 | 288 | 2.0 | 6.0 | 0.00 | 0.00 | 0.00 | 64 | 1009.1 |
| 20260506004429 | 74 | 16 | 2.0 | 6.0 | 0.00 | 0.00 | 0.00 | 64 | 1008.6 |
| 20260506003428 | 75 | 352 | 3.0 | 5.0 | 0.00 | 0.00 | 0.00 | 63 | 1008.6 |
| 20260506002528 | 75 | 45 | 2.0 | 5.0 | 0.00 | 0.00 | 0.00 | 63 | 1008.7 |
| 20260506001527 | 76 | 5 | 4.0 | 7.0 | 0.00 | 0.00 | 0.00 | 62 | 1008.1 |
| 20260506001430 | 77 | 341 | 3.0 | 8.0 | 0.00 | 0.00 | 0.00 | 62 | 1008.2 |
| 20260505235427 | 78 | 309 | 6.0 | 11.0 | 0.00 | 0.00 | 0.00 | 58 | 1007.7 |
| 20260505235331 | 78 | 305 | 4.0 | 7.0 | 0.00 | 0.00 | 0.00 | 58 | 1007.6 |
| 20260505233428 | 80 | 311 | 1.0 | 5.0 | 0.00 | 0.00 | 0.00 | 56 | 1007.8 |
| 20260505231429 | 84 | 330 | 5.0 | 8.0 | 0.00 | 0.00 | 0.00 | 50 | 1007.1 |
| 20260505230429 | 85 | 309 | 7.0 | 12.0 | 0.00 | 0.00 | 0.00 | 47 | 1007.2 |
| 20260505225428 | 86 | 323 | 2.0 | 6.0 | 0.00 | 0.00 | 0.00 | 44 | 1006.7 |
| 20260505224429 | 86 | 306 | 5.0 | 12.0 | 0.00 | 0.00 | 0.00 | 43 | 1006.6 |
| 20260505223430 | 89 | 334 | 6.0 | 12.0 | 0.00 | 0.00 | 0.00 | 43 | 1006.6 |
| 20260505222428 | 91 | 295 | 2.0 | 5.0 | 0.00 | 0.00 | 0.00 | 46 | 1006.3 |
| 20260505221430 | 91 | 247 | 1.0 | 1.0 | 0.00 | 0.00 | 0.00 | 46 | 1006.2 |
| 20260505221328 | 91 | 271 | 1.0 | 2.0 | 0.00 | 0.00 | 0.00 | 46 | 1006.1 |
| 20260505215330 | 92 | 185 | 1.0 | 3.0 | 0.00 | 0.00 | 0.00 | 45 | 1006.5 |
| 20260505214332 | 92 | 220 | 1.0 | 4.0 | 0.00 | 0.00 | 0.00 | 46 | 1006.4 |
| 20260505213427 | 91 | 192 | 1.0 | 2.0 | 0.00 | 0.00 | 0.00 | 46 | 1006.3 |
| 20260505212430 | 91 | 222 | 1.0 | 3.0 | 0.00 | 0.00 | 0.00 | 48 | 1006.5 |
| 20260505210429 | 91 | 241 | 2.0 | 6.0 | 0.00 | 0.00 | 0.00 | 48 | 1006.8 |
| 20260505205429 | 90 | 216 | 4.0 | 7.0 | 0.00 | 0.00 | 0.00 | 50 | 1006.7 |
| 20260505204429 | 90 | 214 | 4.0 | 9.0 | 0.00 | 0.00 | 0.00 | 50 | 1006.8 |
| 20260505203527 | 89 | 236 | 3.0 | 7.0 | 0.00 | 0.00 | 0.00 | 50 | 1007.2 |
| 20260505202528 | 90 | 211 | 2.0 | 3.0 | 0.00 | 0.00 | 0.00 | 51 | 1007.4 |
| 20260505201528 | 89 | 219 | 3.0 | 7.0 | 0.00 | 0.00 | 0.00 | 51 | 1007.3 |
| 20260505201428 | 89 | 207 | 3.0 | 8.0 | 0.00 | 0.00 | 0.00 | 51 | 1007.3 |
| 20260505200527 | 89 | 227 | 4.0 | 8.0 | 0.00 | 0.00 | 0.00 | 52 | 1007.2 |
| 20260505195530 | 88 | 185 | 2.0 | 6.0 | 0.00 | 0.00 | 0.00 | 53 | 1007.4 |
| 20260505194627 | 88 | 192 | 5.0 | 12.0 | 0.00 | 0.00 | 0.00 | 54 | 1007.5 |
| 20260505193626 | 87 | 223 | 4.0 | 10.0 | 0.00 | 0.00 | 0.00 | 55 | 1007.5 |
| 20260505192631 | 86 | 236 | 3.0 | 5.0 | 0.00 | 0.00 | 0.00 | 57 | 1007.5 |
| 20260505191629 | 85 | 212 | 4.0 | 10.0 | 0.00 | 0.00 | 0.00 | 57 | 1007.4 |
| 20260505190727 | 85 | 205 | 3.0 | 6.0 | 0.00 | 0.00 | 0.00 | 58 | 1007.5 |
| 20260505184727 | 84 | 223 | 4.0 | 8.0 | 0.00 | 0.00 | 0.00 | 59 | 1007.8 |
| 20260505183731 | 84 | 205 | 4.0 | 7.0 | 0.00 | 0.00 | 0.00 | 59 | 1007.8 |
| 20260505182728 | 84 | 234 | 4.0 | 8.0 | 0.00 | 0.00 | 0.00 | 59 | 1007.7 |
| 20260505182627 | 84 | 201 | 3.0 | 7.0 | 0.00 | 0.00 | 0.00 | 59 | 1007.6 |
| 20260505181628 | 84 | 219 | 5.0 | 9.0 | 0.00 | 0.00 | 0.00 | 59 | 1007.7 |
| 20260505180727 | 84 | 223 | 5.0 | 8.0 | 0.00 | 0.00 | 0.00 | 61 | 1007.8 |
| 20260505175727 | 84 | 204 | 2.0 | 5.0 | 0.00 | 0.00 | 0.00 | 61 | 1007.8 |
| 20260505174729 | 84 | 195 | 3.0 | 5.0 | 0.00 | 0.00 | 0.00 | 61 | 1007.7 |
| 20260505173827 | 83 | 201 | 4.0 | 7.0 | 0.00 | 0.00 | 0.00 | 64 | 1007.8 |
| 20260505172927 | 83 | 215 | 7.0 | 13.0 | 0.00 | 0.00 | 0.00 | 63 | 1007.8 |
| 20260505171929 | 82 | 195 | 2.0 | 4.0 | 0.00 | 0.00 | 0.00 | 66 | 1007.9 |
| 20260505171028 | 81 | 195 | 3.0 | 6.0 | 0.00 | 0.00 | 0.00 | 66 | 1008.1 |
| 20260505170126 | 80 | 190 | 4.0 | 8.0 | 0.00 | 0.00 | 0.00 | 68 | 1008.0 |
| 20260505165127 | 80 | 185 | 4.0 | 8.0 | 0.00 | 0.00 | 0.00 | 67 | 1008.1 |
| 20260505164127 | 80 | 192 | 5.0 | 12.0 | 0.00 | 0.00 | 0.00 | 68 | 1007.9 |
| 20260505163129 | 80 | 174 | 5.0 | 8.0 | 0.00 | 0.00 | 0.00 | 70 | 1007.8 |
| 20260505162128 | 79 | 213 | 4.0 | 6.0 | 0.00 | 0.00 | 0.00 | 71 | 1007.8 |
| 20260505161127 | 78 | 204 | 6.0 | 11.0 | 0.00 | 0.00 | 0.00 | 71 | 1007.9 |
| 20260505160128 | 78 | 180 | 4.0 | 11.0 | 0.00 | 0.00 | 0.00 | 71 | 1007.9 |
| 20260505153229 | 77 | 192 | 2.0 | 4.0 | 0.00 | 0.00 | 0.00 | 74 | 1007.8 |
| 20260505152228 | 76 | 178 | 3.0 | 8.0 | 0.00 | 0.00 | 0.00 | 75 | 1007.8 |
| 20260505151231 | 76 | 195 | 5.0 | 8.0 | 0.00 | 0.00 | 0.00 | 77 | 1007.8 |
| 20260505150227 | 75 | 185 | 5.0 | 9.0 | 0.00 | 0.00 | 0.00 | 78 | 1007.8 |
| 20260505130227 | 71 | 194 | 3.0 | 6.0 | 0.00 | 0.00 | 0.00 | 86 | 1007.8 |
| 20260505124231 | 70 | 197 | 3.0 | 7.0 | 0.00 | 0.00 | 0.00 | 85 | 1007.5 |
| 20260505123228 | 70 | 190 | 7.0 | 12.0 | 0.00 | 0.00 | 0.00 | 86 | 1007.4 |
| 20260505115327 | 70 | 195 | 3.0 | 8.0 | 0.00 | 0.00 | 0.00 | 85 | 1007.1 |
| 20260505114426 | 70 | 193 | 5.0 | 10.0 | 0.00 | 0.00 | 0.00 | 86 | 1007.0 |
| 20260505112526 | 71 | 183 | 3.0 | 6.0 | 0.00 | 0.00 | 0.00 | 84 | 1006.8 |
| 20260505112426 | 71 | 181 | 4.0 | 14.0 | 0.00 | 0.00 | 0.00 | 85 | 1006.9 |
| 20260505111428 | 71 | 171 | 4.0 | 11.0 | 0.00 | 0.00 | 0.00 | 84 | 1006.7 |
| 20260505101427 | 71 | 179 | 6.0 | 11.0 | 0.00 | 0.00 | 0.00 | 84 | 1006.8 |
| 20260505101330 | 71 | 180 | 5.0 | 12.0 | 0.00 | 0.00 | 0.00 | 83 | 1007.0 |
| 20260505100425 | 71 | 183 | 3.0 | 7.0 | 0.00 | 0.00 | 0.00 | 83 | 1006.9 |
| 20260505095426 | 71 | 192 | 3.0 | 12.0 | 0.00 | 0.00 | 0.00 | 83 | 1007.0 |
| 20260505094427 | 71 | 202 | 4.0 | 7.0 | 0.00 | 0.00 | 0.00 | 82 | 1007.2 |
| 20260505094328 | 71 | 216 | 6.0 | 10.0 | 0.00 | 0.00 | 0.00 | 82 | 1007.2 |
| 20260505093327 | 71 | 202 | 5.0 | 14.0 | 0.00 | 0.00 | 0.00 | 82 | 1007.0 |
| 20260505090327 | 71 | 193 | 2.0 | 4.0 | 0.00 | 0.00 | 0.00 | 83 | 1007.3 |
| 20260505085327 | 71 | 192 | 7.0 | 14.0 | 0.00 | 0.00 | 0.00 | 82 | 1007.4 |
| 20260505082329 | 71 | 181 | 4.0 | 7.0 | 0.00 | 0.00 | 0.00 | 81 | 1007.2 |
| 20260505081327 | 72 | 194 | 5.0 | 7.0 | 0.00 | 0.00 | 0.00 | 81 | 1007.4 |
| 20260505080327 | 72 | 182 | 6.0 | 10.0 | 0.00 | 0.00 | 0.00 | 80 | 1007.3 |
| 20260505075328 | 72 | 175 | 7.0 | 13.0 | 0.00 | 0.00 | 0.00 | 80 | 1007.4 |
| 20260505073427 | 72 | 180 | 6.0 | 11.0 | 0.00 | 0.00 | 0.00 | 79 | 1007.8 |
| 20260505072427 | 72 | 178 | 4.0 | 11.0 | 0.00 | 0.00 | 0.00 | 77 | 1008.0 |
| 20260505071525 | 72 | 209 | 5.0 | 10.0 | 0.00 | 0.00 | 0.00 | 77 | 1008.1 |
| 20260505065626 | 73 | 178 | 5.0 | 11.0 | 0.00 | 0.00 | 0.00 | 76 | 1008.5 |
| 20260505064627 | 73 | 191 | 4.0 | 9.0 | 0.00 | 0.00 | 0.00 | 75 | 1008.6 |
| 20260505063626 | 73 | 186 | 4.0 | 9.0 | 0.00 | 0.00 | 0.00 | 75 | 1008.7 |
| 20260505061627 | 73 | 195 | 5.0 | 11.0 | 0.00 | 0.00 | 0.00 | 74 | 1008.7 |
| 20260505060725 | 73 | 186 | 3.0 | 5.0 | 0.00 | 0.00 | 0.00 | 72 | 1008.7 |
| 20260505055727 | 73 | 178 | 5.0 | 10.0 | 0.00 | 0.00 | 0.00 | 73 | 1008.7 |
| 20260505054728 | 74 | 174 | 5.0 | 8.0 | 0.00 | 0.00 | 0.00 | 72 | 1008.8 |
| 20260505053728 | 74 | 183 | 5.0 | 11.0 | 0.00 | 0.00 | 0.00 | 72 | 1008.7 |
| 20260505051728 | 74 | 183 | 3.0 | 7.0 | 0.00 | 0.00 | 0.00 | 70 | 1008.9 |
| 20260505050727 | 74 | 177 | 4.0 | 7.0 | 0.00 | 0.00 | 0.00 | 69 | 1009.0 |
| 20260505040931 | 75 | 177 | 4.0 | 7.0 | 0.00 | 0.00 | 0.00 | 68 | 1009.1 |
| 20260505035030 | 75 | 177 | 5.0 | 11.0 | 0.00 | 0.00 | 0.00 | 67 | 1009.2 |
| 20260505034031 | 75 | 181 | 3.0 | 6.0 | 0.00 | 0.00 | 0.00 | 67 | 1009.1 |
| 20260505033031 | 75 | 157 | 7.0 | 12.0 | 0.00 | 0.00 | 0.00 | 67 | 1009.0 |
| 20260505032129 | 75 | 162 | 3.0 | 7.0 | 0.00 | 0.00 | 0.00 | 67 | 1009.2 |
| 20260505031131 | 75 | 165 | 4.0 | 10.0 | 0.00 | 0.00 | 0.00 | 67 | 1009.2 |
| 20260505025133 | 75 | 164 | 5.0 | 9.0 | 0.00 | 0.00 | 0.00 | 66 | 1009.3 |
| 20260505024130 | 76 | 174 | 4.0 | 10.0 | 0.00 | 0.00 | 0.00 | 65 | 1009.1 |
| 20260505023130 | 76 | 189 | 4.0 | 6.0 | 0.00 | 0.00 | 0.00 | 64 | 1009.2 |
| 20260505022130 | 76 | 183 | 3.0 | 6.0 | 0.00 | 0.00 | 0.00 | 65 | 1009.0 |
| 20260505021130 | 76 | 164 | 6.0 | 13.0 | 0.00 | 0.00 | 0.00 | 64 | 1009.0 |
| 20260505020130 | 76 | 179 | 4.0 | 6.0 | 0.00 | 0.00 | 0.00 | 64 | 1008.8 |